Home   Weather   Salisbury   Past weeks

Flag for United Kingdom Past Weather in Salisbury, England, United Kingdom — Yesterday and Last 2 Weeks

Now
45 °F

Passing clouds.


Feels Like: 41 °F
Forecast: 34 / 51 °F
Wind: 6 mph from Northwest

Location: Boscombe Down

Current Time: Apr 24, 2017 at 2:51:05 am

Latest Report: Apr 24, 2017 at 1:50 am


Visibility: N/A

Pressure: 30.15 "Hg

Humidity: 87%

Dew Point: 41 °F

Location of SalisburyLocation

Past Weather in Salisbury — Graph

°F

Salisbury Temperature Yesterday

Maximum temperature yesterday: 59 °F (at 2:50 pm)
Minimum temperature yesterday: 37 °F (at 3:50 am)
Average temperature yesterday: 49 °F

High & Low Weather Summary for the Past Weeks

 TemperatureHumidityPressure
High70 °F (Apr 9, 1:50 pm)100% (Apr 10, 3:50 am)30.63 "Hg (Apr 10, 3:50 am)
Low36 °F (Apr 18, 4:50 am)33% (Apr 18, 4:50 pm)30.01 "Hg (Apr 14, 4:50 pm)
Average49 °F73%30.28 "Hg
* Reported Apr 9 12:50 am — Apr 24 12:50 am, Salisbury, Weather by CustomWeather, © 2017

Note: Actual official high and low records may vary slightly from our data, if they occured in-between our weather recording intervals... More about our weather records

Advertising

Salisbury Weather History for the Previous 24 Hours

Scroll right to see more
 ConditionsComfort  
Time TempWeatherWind HumidityBarometerVisibility
12:50 am
Mon, Apr 24
45 °FQuite cool.8 mph87%30.15 "HgN/A
11:50 pm
Sun, Apr 23
46 °FCool.8 mph82%30.18 "HgN/A
10:50 pm46 °FCool.9 mph82%30.18 "HgN/A
9:50 pm48 °FCool.8 mph71%30.18 "HgN/A
8:50 pm52 °FPassing clouds.6 mph67%30.21 "HgN/A
7:50 pm55 °FPartly sunny.5 mph59%30.21 "HgN/A
6:50 pm57 °FOvercast.5 mph55%30.21 "HgN/A
5:50 pm57 °FOvercast.7 mph55%30.21 "HgN/A
4:50 pm57 °FSunny.7 mph55%30.24 "Hg10 mi
3:50 pm57 °FScattered clouds.8 mph51%30.24 "HgN/A
2:50 pm59 °FPartly sunny.9 mph51%30.27 "HgN/A
1:50 pm57 °FPartly sunny.6 mph55%30.27 "HgN/A
12:50 pm57 °FScattered clouds.7 mph48%30.30 "HgN/A
11:50 am57 °FScattered clouds.5 mph51%30.30 "HgN/A
10:50 am54 °FScattered clouds.3 mph63%30.33 "HgN/A
9:50 am50 °FSunny.6 mph71%30.33 "Hg10 mi
8:50 am45 °FSunny.3 mph81%30.33 "Hg10 mi
7:50 am41 °FSunny.6 mph81%30.33 "Hg10 mi
6:50 am37 °FChilly.5 mph87%30.33 "HgN/A
5:50 am37 °FChilly.6 mph81%30.33 "HgN/A
4:50 am37 °FChilly.5 mph81%30.33 "HgN/A
3:50 am37 °FChilly.6 mph87%30.33 "HgN/A
2:50 am39 °FChilly.8 mph81%30.33 "HgN/A
Weather by CustomWeather, © 2017

See weather overviewHow to use our weather pages